TimeMST,TemperatureF,Dew PointF,Humidity,Sea Level PressureIn,VisibilityMPH,Wind Direction,Wind SpeedMPH,Gust SpeedMPH,PrecipitationIn,Events,Conditions,WindDirDegrees,DateUTC
12:53 AM,30.9,25.0,79,30.29,10.0,NNW,10.4,-,N/A,,Clear,330,2013-03-02 07:53:00
2:53 AM,34.0,26.1,73,30.29,10.0,NW,10.4,-,N/A,,Clear,320,2013-03-02 09:53:00
3:53 AM,32.0,25.0,75,30.28,10.0,WNW,10.4,-,N/A,,Clear,300,2013-03-02 10:53:00
5:53 AM,30.9,24.1,76,30.30,10.0,NW,8.1,-,N/A,,Clear,310,2013-03-02 12:53:00
6:53 AM,33.1,24.1,70,30.31,10.0,NNW,5.8,-,N/A,,Clear,330,2013-03-02 13:53:00
7:53 AM,34.0,25.0,70,30.30,10.0,North,3.5,-,N/A,,Clear,360,2013-03-02 14:53:00
8:53 AM,39.9,27.0,60,30.30,10.0,WNW,6.9,-,N/A,,Clear,290,2013-03-02 15:53:00
9:53 AM,48.0,28.9,48,30.26,10.0,West,8.1,-,N/A,,Clear,280,2013-03-02 16:53:00
10:53 AM,51.1,28.0,41,30.22,10.0,WNW,20.7,-,N/A,,Clear,290,2013-03-02 17:53:00
11:53 AM,53.1,28.0,38,30.21,10.0,WNW,19.6,25.3,N/A,,Clear,290,2013-03-02 18:53:00
12:53 PM,54.0,28.0,37,30.16,10.0,WNW,19.6,26.5,N/A,,Clear,290,2013-03-02 19:53:00
1:53 PM,55.0,27.0,34,30.13,10.0,WNW,19.6,27.6,N/A,,Clear,300,2013-03-02 20:53:00
2:53 PM,55.0,26.1,33,30.11,10.0,WNW,19.6,-,N/A,,Clear,300,2013-03-02 21:53:00
3:53 PM,53.1,26.1,35,30.11,10.0,WNW,21.9,27.6,N/A,,Clear,290,2013-03-02 22:53:00
4:53 PM,48.0,27.0,44,30.13,10.0,West,10.4,-,N/A,,Clear,270,2013-03-02 23:53:00
6:53 PM,42.1,27.0,55,30.13,10.0,WNW,3.5,-,N/A,,Clear,290,2013-03-03 01:53:00
7:53 PM,37.0,27.0,67,30.12,10.0,North,6.9,-,N/A,,Clear,10,2013-03-03 02:53:00
8:53 PM,34.0,27.0,75,30.09,10.0,Calm,Calm,-,N/A,,Clear,0,2013-03-03 03:53:00
9:53 PM,35.1,28.0,76,30.02,10.0,NE,4.6,-,N/A,,Clear,40,2013-03-03 04:53:00
10:53 PM,34.0,27.0,75,29.97,10.0,ESE,5.8,-,N/A,,Clear,110,2013-03-03 05:53:00
11:53 PM,35.1,27.0,72,29.93,10.0,SE,4.6,-,N/A,,Clear,140,2013-03-03 06:53:00